EW6606 Weather Reports


Display with metric or nautical units.
time (UTC)temp
F
wind
direction
speed
MPH
gust
MPH
rain 1hr
in
rain 24hr
in
rain mn
in
humidity
%
barometer
mb
20260906231340 87 235 0.0 3.0 0.00 0.00 0.00 61 1011.1
20260906230839 88 253 2.0 3.0 0.00 0.00 0.00 61 1011.3
20260906230335 88 242 0.0 1.0 0.00 0.00 0.00 61 1011.4
20260906225832 88 249 0.0 2.0 0.00 0.00 0.00 60 1011.4
20260906225328 88 319 2.0 4.0 0.00 0.00 0.00 60 1011.2
20260906224823 89 240 1.0 6.0 0.00 0.00 0.00 59 1011.1
20260906224314 89 229 1.0 5.0 0.00 0.00 0.00 59 1011.1
20260906223810 89 289 3.0 5.0 0.00 0.00 0.00 58 1011.1
20260906223306 89 226 3.0 4.0 0.00 0.00 0.00 57 1011.1
20260906222804 90 32 0.0 6.0 0.00 0.00 0.00 57 1011.2
20260906222306 90 264 1.0 4.0 0.00 0.00 0.00 56 1011.1
20260906221801 90 14 2.0 9.0 0.00 0.00 0.00 55 1011.0
20260906221255 91 232 3.0 6.0 0.00 0.00 0.00 55 1011.0
20260906220751 91 292 1.0 4.0 0.00 0.00 0.00 54 1011.0
20260906220245 91 15 0.0 2.0 0.00 0.00 0.00 54 1010.9
20260906215744 91 277 2.0 8.0 0.00 0.00 0.00 53 1010.8
20260906215239 92 273 3.0 6.0 0.00 0.00 0.00 51 1010.5
20260906214737 92 48 2.0 3.0 0.00 0.00 0.00 50 1010.7
20260906214233 93 282 4.0 8.0 0.00 0.00 0.00 48 1010.4
20260906213732 94 203 0.0 5.0 0.00 0.00 0.00 48 1010.5
20260906213231 94 351 0.0 2.0 0.00 0.00 0.00 47 1010.5
20260906212728 95 1 1.0 2.0 0.00 0.00 0.00 46 1010.4
20260906212225 95 357 1.0 2.0 0.00 0.00 0.00 46 1010.6
20260906211719 95 12 0.0 2.0 0.00 0.00 0.00 45 1010.5
20260906211214 95 293 2.0 3.0 0.00 0.00 0.00 45 1010.7
20260906210709 95 353 0.0 2.0 0.00 0.00 0.00 45 1010.7
20260906210209 96 345 1.0 2.0 0.00 0.00 0.00 45 1010.7
20260906205704 96 1 1.0 2.0 0.00 0.00 0.00 45 1010.8
20260906205201 96 322 0.0 3.0 0.00 0.00 0.00 44 1010.6
20260906204655 96 6 0.0 2.0 0.00 0.00 0.00 44 1010.6
20260906204154 97 322 0.0 1.0 0.00 0.00 0.00 43 1010.8
20260906203654 97 51 0.0 2.0 0.00 0.00 0.00 43 1010.8
20260906203149 97 354 0.0 2.0 0.00 0.00 0.00 44 1011.1
20260906202646 97 29 0.0 2.0 0.00 0.00 0.00 44 1011.0
20260906202145 97 0 0.0 3.0 0.00 0.00 0.00 43 1011.2
20260906201641 97 321 1.0 3.0 0.00 0.00 0.00 42 1011.1
20260906201139 97 356 3.0 6.0 0.00 0.00 0.00 42 1011.0
20260906200636 98 307 0.0 2.0 0.00 0.00 0.00 42 1011.0
20260906200132 98 53 0.0 3.0 0.00 0.00 0.00 42 1011.1
20260906195627 98 309 0.0 3.0 0.00 0.00 0.00 41 1010.7
20260906195124 99 102 1.0 4.0 0.00 0.00 0.00 40 1010.8
20260906194619 100 298 3.0 4.0 0.00 0.00 0.00 41 1010.8
20260906194114 100 278 5.0 6.0 0.00 0.00 0.00 40 1010.7
20260906193609 100 333 0.0 5.0 0.00 0.00 0.00 40 1010.9
20260906193104 99 351 3.0 5.0 0.00 0.00 0.00 42 1010.9
20260906192600 99 325 4.0 5.0 0.00 0.00 0.00 43 1011.1
20260906192059 99 266 7.0 7.0 0.00 0.00 0.00 43 1011.3
20260906191554 99 135 2.0 5.0 0.00 0.00 0.00 43 1011.5
20260906191053 98 14 0.0 2.0 0.00 0.00 0.00 43 1011.5
20260906190552 98 84 2.0 3.0 0.00 0.00 0.00 44 1011.7
20260906190048 98 16 2.0 4.0 0.00 0.00 0.00 44 1011.8
20260906185546 98 341 3.0 5.0 0.00 0.00 0.00 44 1011.7
20260906185045 98 88 1.0 5.0 0.00 0.00 0.00 44 1011.8
20260906184541 98 20 1.0 4.0 0.00 0.00 0.00 44 1011.9
20260906184036 98 340 3.0 5.0 0.00 0.00 0.00 47 1012.0
20260906183532 97 257 3.0 4.0 0.00 0.00 0.00 47 1012.3
20260906183028 97 265 2.0 5.0 0.00 0.00 0.00 47 1012.2
20260906182523 97 337 2.0 3.0 0.00 0.00 0.00 47 1012.2
20260906182019 97 99 2.0 4.0 0.00 0.00 0.00 48 1012.1
20260906181514 97 344 3.0 5.0 0.00 0.00 0.00 47 1012.3
20260906181010 97 243 5.0 6.0 0.00 0.00 0.00 48 1012.4
20260906180504 97 349 0.0 5.0 0.00 0.00 0.00 48 1012.6
20260906180003 97 354 1.0 3.0 0.00 0.00 0.00 49 1012.5
20260906175457 97 207 3.0 6.0 0.00 0.00 0.00 50 1012.6
20260906174955 97 242 2.0 7.0 0.00 0.00 0.00 49 1013.0
20260906174449 96 81 2.0 3.0 0.00 0.00 0.00 51 1012.9
20260906173944 96 355 4.0 9.0 0.00 0.00 0.00 52 1012.8
20260906173440 95 342 1.0 5.0 0.00 0.00 0.00 52 1012.9
20260906172939 95 284 5.0 7.0 0.00 0.00 0.00 53 1013.0
20260906172436 95 232 3.0 3.0 0.00 0.00 0.00 54 1013.1
20260906171931 94 309 4.0 5.0 0.00 0.00 0.00 55 1013.2
20260906171425 94 154 2.0 5.0 0.00 0.00 0.00 55 1013.1
20260906170921 94 78 2.0 4.0 0.00 0.00 0.00 56 1013.4
20260906170417 93 40 3.0 4.0 0.00 0.00 0.00 56 1013.3
20260906165913 93 43 1.0 2.0 0.00 0.00 0.00 56 1013.3
20260906165413 93 255 2.0 4.0 0.00 0.00 0.00 58 1013.5
20260906164908 92 192 2.0 4.0 0.00 0.00 0.00 59 1013.5
20260906164407 92 5 3.0 4.0 0.00 0.00 0.00 56 1013.7
20260906163903 92 261 0.0 3.0 0.00 0.00 0.00 58 1013.9
20260906163359 92 7 0.0 3.0 0.00 0.00 0.00 59 1013.9
20260906162857 91 341 3.0 4.0 0.00 0.00 0.00 60 1013.8
20260906162355 91 7 2.0 3.0 0.00 0.00 0.00 60 1014.0
20260906161851 91 344 1.0 3.0 0.00 0.00 0.00 58 1014.1
20260906161350 91 349 3.0 4.0 0.00 0.00 0.00 60 1014.1
20260906160849 90 337 3.0 4.0 0.00 0.00 0.00 61 1014.1
20260906160343 90 100 1.0 4.0 0.00 0.00 0.00 62 1014.1
20260906155841 89 2 1.0 2.0 0.00 0.00 0.00 64 1014.0
20260906155335 89 93 0.0 3.0 0.00 0.00 0.00 65 1014.0
20260906154831 88 142 0.0 4.0 0.00 0.00 0.00 64 1013.9
20260906154320 88 252 0.0 5.0 0.00 0.00 0.00 65 1014.1
20260906153819 88 16 2.0 3.0 0.00 0.00 0.00 67 1013.9
20260906153318 88 59 1.0 3.0 0.00 0.00 0.00 67 1013.9
20260906152814 88 154 0.0 3.0 0.00 0.00 0.00 66 1013.9
20260906152309 87 105 1.0 3.0 0.00 0.00 0.00 69 1013.9
20260906151808 87 84 1.0 2.0 0.00 0.00 0.00 70 1013.9
20260906151304 87 343 3.0 4.0 0.00 0.00 0.00 71 1013.8
20260906150759 86 297 0.0 2.0 0.00 0.00 0.00 71 1014.0
20260906150254 86 164 1.0 4.0 0.00 0.00 0.00 71 1013.9
20260906145754 85 216 2.0 2.0 0.00 0.00 0.00 73 1013.9
20260906145252 85 305 2.0 4.0 0.00 0.00 0.00 73 1014.0
20260906144748 84 289 3.0 4.0 0.00 0.00 0.00 73 1013.8
20260906144242 84 124 3.0 4.0 0.00 0.00 0.00 73 1013.9
20260906143741 84 208 3.0 3.0 0.00 0.00 0.00 75 1013.7
20260906143239 83 186 4.0 5.0 0.00 0.00 0.00 77 1013.8
20260906142738 82 89 0.0 4.0 0.00 0.00 0.00 78 1013.9
20260906142233 82 190 0.0 3.0 0.00 0.00 0.00 80 1014.1
20260906141732 82 125 3.0 5.0 0.00 0.00 0.00 82 1014.1
20260906141227 81 336 0.0 3.0 0.00 0.00 0.00 83 1013.9
20260906140727 80 255 0.0 3.0 0.00 0.00 0.00 84 1013.9
20260906140222 80 329 0.0 3.0 0.00 0.00 0.00 85 1014.2
20260906135718 79 185 1.0 4.0 0.00 0.00 0.00 85 1014.2
20260906135214 79 135 1.0 5.0 0.00 0.00 0.00 86 1014.1
20260906134710 79 115 1.0 3.0 0.00 0.00 0.00 85 1014.1
20260906134205 79 170 2.0 3.0 0.00 0.00 0.00 86 1014.1
20260906133701 79 193 0.0 3.0 0.00 0.00 0.00 87 1014.1
20260906133155 79 307 0.0 2.0 0.00 0.00 0.00 89 1014.1
20260906132651 78 273 0.0 2.0 0.00 0.00 0.00 89 1014.1
20260906132147 78 169 0.0 3.0 0.00 0.00 0.00 90 1014.0
20260906131642 78 315 2.0 2.0 0.00 0.00 0.00 91 1014.1
20260906131137 77 311 0.0 3.0 0.00 0.00 0.00 92 1014.1
20260906130632 77 297 0.0 3.0 0.00 0.00 0.00 92 1014.1
20260906130127 76 144 1.0 2.0 0.00 0.00 0.00 92 1014.0
20260906125624 76 144 0.0 3.0 0.00 0.00 0.00 92 1014.0
20260906125118 76 135 0.0 2.0 0.00 0.00 0.00 92 1014.0
20260906124614 76 246 0.0 1.0 0.00 0.00 0.00 92 1014.0
20260906124109 76 57 0.0 2.0 0.00 0.00 0.00 92 1014.1
20260906123608 76 58 0.0 2.0 0.00 0.00 0.00 92 1013.8
20260906123103 76 9 2.0 2.0 0.00 0.00 0.00 93 1013.9
20260906122602 75 321 0.0 2.0 0.00 0.00 0.00 93 1013.8
20260906122058 75 187 0.0 1.0 0.00 0.00 0.00 93 1013.9
20260906121554 75 134 2.0 3.0 0.00 0.00 0.00 93 1013.7
20260906121051 75 147 2.0 3.0 0.00 0.00 0.00 93 1013.7
20260906120546 75 178 2.0 2.0 0.00 0.00 0.00 93 1013.8
20260906120043 75 150 2.0 3.0 0.00 0.00 0.00 93 1013.8
20260906115542 75 134 0.0 2.0 0.00 0.00 0.00 93 1013.8
20260906115037 75 294 2.0 2.0 0.00 0.00 0.00 93 1013.8
20260906114532 75 202 0.0 2.0 0.00 0.00 0.00 93 1013.9
20260906114028 75 98 0.0 2.0 0.00 0.00 0.00 93 1013.7
20260906113526 75 137 1.0 3.0 0.00 0.00 0.00 93 1013.6
20260906113022 75 154 0.0 1.0 0.00 0.00 0.00 93 1013.5
20260906112517 75 195 1.0 2.0 0.00 0.00 0.00 93 1013.7
20260906112013 75 169 1.0 2.0 0.00 0.00 0.00 93 1013.6
20260906111513 75 167 0.0 2.0 0.00 0.00 0.00 93 1013.6
20260906111008 75 144 1.0 3.0 0.00 0.00 0.00 93 1013.7
20260906110503 75 164 0.0 2.0 0.00 0.00 0.00 92 1013.5
20260906110001 76 183 1.0 2.0 0.00 0.00 0.00 92 1013.7
20260906105457 76 117 0.0 1.0 0.00 0.00 0.00 92 1013.8
20260906104953 76 102 0.0 0.0 0.00 0.00 0.00 92 1013.8
20260906104451 76 62 1.0 3.0 0.00 0.00 0.00 92 1013.6
20260906103951 76 87 2.0 2.0 0.00 0.00 0.00 92 1013.4
20260906103449 76 239 2.0 3.0 0.00 0.00 0.00 92 1013.4
20260906102945 76 242 0.0 0.0 0.00 0.00 0.00 92 1013.5
20260906102444 76 75 0.0 0.0 0.00 0.00 0.00 92 1013.5
20260906101939 76 73 0.0 2.0 0.00 0.00 0.00 91 1013.5
20260906101435 76 89 0.0 2.0 0.00 0.00 0.00 91 1013.4
20260906100930 76 217 0.0 2.0 0.00 0.00 0.00 91 1013.3
20260906100430 76 224 0.0 0.0 0.00 0.00 0.00 91 1013.5
20260906095924 76 50 0.0 2.0 0.00 0.00 0.00 91 1013.4
20260906095420 76 236 1.0 2.0 0.00 0.00 0.00 91 1013.3
20260906094914 76 247 1.0 3.0 0.00 0.00 0.00 91 1013.4
20260906094409 76 0 0.0 2.0 0.00 0.00 0.00 91 1013.3
20260906093905 76 274 0.0 3.0 0.00 0.00 0.00 91 1013.3
20260906093401 76 28 1.0 2.0 0.00 0.00 0.00 91 1013.5
20260906092900 76 304 0.0 2.0 0.00 0.00 0.00 91 1013.3
20260906092355 76 264 2.0 3.0 0.00 0.00 0.00 91 1013.3
20260906091850 76 13 2.0 2.0 0.00 0.00 0.00 91 1013.2
20260906091347 76 129 0.0 1.0 0.00 0.00 0.00 91 1013.3
20260906090843 76 230 0.0 0.0 0.00 0.00 0.00 91 1013.2
20260906090342 76 22 0.0 1.0 0.00 0.00 0.00 91 1013.3
20260906085836 76 241 0.0 1.0 0.00 0.00 0.00 91 1013.2
20260906085336 76 154 0.0 1.0 0.00 0.00 0.00 91 1013.3
20260906084831 76 164 0.0 2.0 0.00 0.00 0.00 91 1013.3
20260906084331 76 134 2.0 3.0 0.00 0.00 0.00 91 1013.4
20260906083825 76 137 0.0 2.0 0.00 0.00 0.00 91 1013.3
20260906083321 76 129 0.0 1.0 0.00 0.00 0.00 91 1013.4
20260906082821 76 230 0.0 1.0 0.00 0.00 0.00 90 1013.3
20260906082316 76 13 0.0 1.0 0.00 0.00 0.00 90 1013.3
20260906081812 76 56 1.0 2.0 0.00 0.00 0.00 90 1013.2
20260906081307 76 62 0.0 2.0 0.00 0.00 0.00 90 1013.1
20260906080803 76 37 0.0 2.0 0.00 0.00 0.00 90 1013.0
20260906080300 76 53 1.0 2.0 0.00 0.00 0.00 90 1013.0
20260906075758 76 25 0.0 2.0 0.00 0.00 0.00 89 1013.1
20260906075253 77 37 0.0 2.0 0.00 0.00 0.00 89 1013.2
20260906074749 77 357 2.0 2.0 0.00 0.00 0.00 89 1013.2
20260906074248 77 6 2.0 2.0 0.00 0.00 0.00 89 1013.2
20260906073747 77 297 0.0 1.0 0.00 0.00 0.00 89 1013.2
20260906073242 77 7 0.0 0.0 0.00 0.00 0.00 89 1013.3
20260906072738 77 293 0.0 0.0 0.00 0.00 0.00 89 1013.2
20260906072234 77 230 0.0 0.0 0.00 0.00 0.00 89 1013.6
20260906071730 77 166 0.0 1.0 0.00 0.00 0.00 89 1013.4
20260906071229 77 142 0.0 1.0 0.00 0.00 0.00 89 1013.4
20260906070726 77 7 0.0 0.0 0.00 0.00 0.00 89 1013.4
20260906070222 77 7 0.0 0.0 0.00 0.00 0.00 89 1013.4
20260906065721 77 166 0.0 0.0 0.00 0.00 0.00 89 1013.3
20260906065216 77 166 0.0 0.0 0.00 0.00 0.00 89 1013.5
20260906064712 77 297 0.0 1.0 0.00 0.00 0.00 89 1013.5
20260906064207 77 315 0.0 2.0 0.00 0.00 0.00 89 1013.5
20260906063702 77 130 0.0 0.0 0.00 0.00 0.00 89 1013.7
20260906063158 77 130 0.0 0.0 0.00 0.00 0.00 89 1013.6
20260906062654 77 130 0.0 1.0 0.00 0.00 0.00 89 1013.7
20260906062152 77 66 0.0 1.0 0.00 0.00 0.00 89 1013.7
20260906061648 77 333 0.0 1.0 0.00 0.00 0.00 89 1013.5
20260906061143 77 343 0.0 1.0 0.00 0.00 0.00 89 1013.6
20260906060639 77 121 1.0 3.0 0.00 0.00 0.00 89 1013.6
20260906060137 77 163 1.0 2.0 0.00 0.00 0.00 89 1013.7
20260906055632 77 141 1.0 2.0 0.00 0.00 0.00 88 1013.7
20260906055127 77 37 0.0 2.0 0.00 0.00 0.00 88 1013.7
20260906054622 77 67 1.0 1.0 0.00 0.00 0.00 87 1013.6
20260906054117 77 124 2.0 2.0 0.00 0.00 0.00 87 1013.6
20260906053614 78 129 0.0 1.0 0.00 0.00 0.00 86 1013.4
20260906053108 78 142 0.0 0.0 0.00 0.00 0.00 86 1013.2
20260906052604 78 142 0.0 1.0 0.00 0.00 0.00 86 1013.3
20260906052100 78 142 0.0 1.0 0.00 0.00 0.00 86 1013.5
20260906051556 78 76 0.0 0.0 0.00 0.00 0.00 86 1013.5
20260906051052 78 89 0.0 2.0 0.00 0.00 0.00 85 1013.5
20260906050546 78 89 0.0 2.0 0.00 0.00 0.00 85 1013.4
20260906050042 78 47 0.0 1.0 0.00 0.00 0.00 85 1013.7
20260906045540 78 129 0.0 0.0 0.00 0.03 0.03 85 1013.6
20260906045036 78 129 0.0 1.0 0.00 0.03 0.03 85 1013.5
20260906044531 78 119 0.0 1.0 0.00 0.03 0.03 85 1013.6
20260906044027 78 114 1.0 2.0 0.00 0.03 0.03 85 1013.6
20260906043522 79 0 0.0 2.0 0.00 0.03 0.03 85 1013.5
20260906043018 79 31 1.0 2.0 0.00 0.03 0.03 85 1013.7
20260906042516 79 9 0.0 2.0 0.00 0.03 0.03 85 1013.6
20260906042011 79 357 1.0 2.0 0.00 0.03 0.03 85 1013.7
20260906041508 79 117 0.0 1.0 0.00 0.03 0.03 85 1013.7
20260906041008 79 66 0.0 1.0 0.00 0.03 0.03 84 1013.9
20260906040503 79 76 0.0 2.0 0.00 0.03 0.03 84 1013.9
20260906035957 79 124 0.0 2.0 0.00 0.03 0.03 84 1013.8
20260906035453 79 44 1.0 2.0 0.00 0.03 0.03 84 1013.7
20260906034948 79 89 0.0 1.0 0.00 0.03 0.03 84 1013.5
20260906034443 79 122 1.0 2.0 0.00 0.03 0.03 84 1013.8
20260906033939 79 104 0.0 0.0 0.00 0.03 0.03 84 1013.7
20260906033438 79 89 0.0 1.0 0.00 0.03 0.03 84 1013.8
20260906032934 80 7 0.0 2.0 0.00 0.03 0.03 84 1013.7
20260906032431 80 50 0.0 2.0 0.00 0.03 0.03 84 1013.8
20260906031925 80 139 1.0 2.0 0.00 0.03 0.03 84 1013.9
20260906031420 80 195 0.0 0.0 0.00 0.03 0.03 83 1013.8
20260906030915 80 20 1.0 2.0 0.00 0.03 0.03 83 1013.8
20260906030410 80 117 0.0 1.0 0.00 0.03 0.03 83 1013.7
20260906025904 80 155 0.0 2.0 0.00 0.03 0.03 83 1013.7
20260906025359 80 155 1.0 2.0 0.00 0.03 0.03 83 1013.7
20260906024858 80 129 0.0 2.0 0.00 0.03 0.03 84 1013.8
20260906024357 80 130 1.0 2.0 0.00 0.03 0.03 83 1013.7
20260906023852 80 142 1.0 2.0 0.00 0.03 0.03 83 1013.7
20260906023348 80 130 0.0 0.0 0.00 0.03 0.03 82 1013.6
20260906022843 81 129 1.0 2.0 0.00 0.03 0.03 82 1013.6
20260906022338 81 211 0.0 1.0 0.00 0.03 0.03 81 1013.6
20260906021834 81 297 0.0 0.0 0.00 0.03 0.03 81 1013.6
20260906021333 81 297 0.0 1.0 0.00 0.03 0.03 81 1013.6
20260906020828 81 113 0.0 2.0 0.00 0.03 0.03 81 1013.4
20260906020327 81 123 2.0 2.0 0.00 0.03 0.03 81 1013.3
20260906015822 81 15 0.0 1.0 0.00 0.03 0.03 81 1013.3
20260906015321 81 172 1.0 2.0 0.00 0.03 0.03 81 1013.2
20260906014820 82 122 1.0 2.0 0.00 0.03 0.03 80 1012.9
20260906014316 82 89 0.0 1.0 0.00 0.03 0.03 80 1012.9
20260906013812 82 155 2.0 3.0 0.00 0.03 0.03 80 1013.0
20260906013307 82 129 0.0 1.0 0.00 0.03 0.03 79 1012.8
20260906012803 82 117 0.0 1.0 0.00 0.03 0.03 78 1012.6
20260906012257 83 142 0.0 1.0 0.00 0.03 0.03 77 1012.4
20260906011752 83 117 0.0 0.0 0.00 0.03 0.03 77 1012.5
20260906011252 83 62 0.0 0.0 0.00 0.03 0.03 77 1012.2
20260906010748 83 64 1.0 2.0 0.00 0.03 0.03 76 1012.2
20260906010244 83 50 0.0 2.0 0.00 0.03 0.03 76 1012.2
20260906005738 84 154 0.0 1.0 0.00 0.03 0.03 76 1012.1
20260906005232 84 187 0.0 1.0 0.00 0.03 0.03 75 1012.2
20260906004732 84 297 0.0 0.0 0.00 0.03 0.03 75 1012.3
20260906004227 84 2 1.0 2.0 0.00 0.03 0.03 75 1012.5
20260906003721 84 79 1.0 1.0 0.00 0.03 0.03 74 1012.3
20260906003212 85 269 0.0 1.0 0.00 0.03 0.03 74 1012.2
20260906002712 85 89 0.0 1.0 0.00 0.03 0.03 73 1012.2
20260906002207 85 65 0.0 1.0 0.00 0.03 0.03 73 1012.3
20260906001702 85 52 0.0 1.0 0.00 0.03 0.03 73 1012.4
20260906001201 85 37 0.0 0.0 0.00 0.03 0.03 73 1012.6
20260906000657 85 37 0.0 2.0 0.00 0.03 0.03 73 1012.5
20260906000152 85 11 2.0 2.0 0.00 0.03 0.03 73 1012.3
20260905235651 86 327 3.0 3.0 0.00 0.03 0.03 73 1012.5
20260905235146 86 149 2.0 2.0 0.00 0.03 0.03 73 1012.3
20260905234641 86 142 0.0 2.0 0.00 0.03 0.03 72 1012.4
20260905234137 86 162 0.0 2.0 0.00 0.03 0.03 72 1012.4
20260905233632 86 165 1.0 3.0 0.00 0.03 0.03 72 1012.5
20260905233126 86 129 0.0 2.0 0.00 0.03 0.03 72 1012.5
20260905232622 86 147 2.0 6.0 0.00 0.03 0.03 72 1012.5
20260905232117 86 125 2.0 3.0 0.00 0.03 0.03 73 1012.2